Wind_Speed
17 18 18 18 18 17 17 17 18 19 18 17 18 18 17 18 18 18 18 18 19 19 19 19 20 22 23 24 26 27 28 30 32 34 35 36 37 38 39 41 42 44 45 47
16 17 17 16 16 15 15 15 16 16 16 16 16 17 17 17 17 18 18 19 20 20 20 21 21 22 24 25 27 28 29 31 33 35 37 38 39 39 40 41 43 45 48 50
14 15 15 14 14 14 14 14 13 12 14 16 16 18 17 17 17 18 18 19 20 21 22 23 23 24 26 27 28 29 30 32 33 35 37 38 40 41 42 44 46 48 50 52
14 13 13 13 13 13 13 14 13 12 13 14 17 19 19 18 17 18 19 19 21 22 23 24 25 26 27 28 29 30 31 32 34 35 37 39 41 42 44 47 48 50 52 54
13 13 13 13 13 13 14 14 14 13 14 15 17 19 22 20 20 20 20 21 22 23 24 25 26 27 28 29 31 32 33 34 35 37 39 40 42 43 45 47 49 51 54 56
14 13 13 13 14 14 15 16 16 16 16 16 17 18 22 23 23 22 22 23 23 24 24 25 26 28 29 30 31 33 34 35 36 37 39 40 42 43 45 47 49 52 54 57
14 13 14 14 15 15 16 18 19 19 18 18 19 20 22 24 24 24 24 24 24 24 24 25 26 27 29 31 33 34 35 36 37 38 39 40 42 44 45 47 49 51 54 56
14 14 15 15 17 18 19 20 21 22 21 20 21 22 23 24 25 25 24 24 23 23 24 24 26 28 30 31 32 34 35 36 37 39 40 42 44 45 47 49 51 53 54 56
16 16 17 18 19 20 21 22 22 23 24 22 21 22 23 24 24 23 22 22 22 23 24 25 27 29 31 32 33 35 36 38 39 41 43 45 47 49 50 52 53 55 56 58
19 18 18 19 21 22 23 24 24 25 26 26 23 22 24 24 23 22 22 23 24 25 26 28 29 31 33 35 36 37 39 41 43 44 46 48 50 52 54 55 57 59 60 61
22 21 20 21 22 24 25 25 26 27 27 28 25 21 24 23 23 23 24 25 26 28 29 31 33 35 37 39 40 42 44 45 47 49 51 53 55 57 59 60 61 62 63 64
23 23 22 23 25 26 26 26 27 28 28 27 26 21 23 23 25 25 26 28 30 32 33 35 37 39 41 43 45 46 48 50 53 55 57 59 61 62 64 65 66 67 67 68
25 25 25 25 26 27 27 27 28 29 28 26 25 21 24 26 27 28 30 32 34 36 37 39 41 43 45 47 50 52 54 56 58 61 63 65 66 68 69 69 70 70 70 70
28 28 27 27 28 29 27 27 28 30 29 27 24 23 24 28 30 31 33 35 37 39 42 44 46 48 50 52 55 57 60 62 64 67 69 70 72 73 73 74 74 73 73 72
30 30 29 29 29 30 28 27 29 30 30 30 26 27 27 29 31 34 36 38 41 43 46 48 50 53 55 58 60 63 65 68 70 72 74 75 76 77 77 76 76 75 75 74
31 32 31 29 30 30 29 28 29 29 30 31 30 29 31 32 35 37 40 42 45 47 50 52 55 58 60 63 65 68 71 73 75 77 78 79 79 79 78 77 76 75 74 72
33 33 33 31 30 31 30 29 29 30 30 31 31 32 34 36 38 41 43 46 49 52 54 57 60 62 65 68 71 73 76 78 80 81 81 81 80 79 78 76 75 73 72 70
33 33 35 34 32 31 30 29 30 30 31 32 33 35 37 39 42 44 47 50 53 56 59 62 64 67 70 72 75 77 80 81 82 83 82 81 80 78 76 74 72 70 69 67
33 34 36 36 33 30 29 31 31 32 33 34 36 38 40 43 45 48 51 54 57 60 63 66 69 72 74 77 79 81 82 83 83 82 81 80 78 75 73 70 68 67 65 64
33 34 36 35 35 32 32 32 33 35 36 37 39 41 44 47 50 52 55 58 60 63 67 70 73 76 78 80 82 83 83 83 82 81 79 76 73 70 68 66 64 63 61 60
33 34 35 35 36 35 35 35 36 37 39 41 42 45 48 51 54 57 60 63 66 69 72 74 77 79 81 82 83 83 83 82 80 78 74 70 67 65 63 62 60 58 57 56
33 34 34 36 37 38 38 38 39 40 42 44 47 49 52 55 58 61 64 67 69 72 74 76 78 80 81 82 82 82 80 79 76 72 68 65 63 61 60 59 57 56 55 54
33 34 35 36 38 40 39 40 42 43 46 48 51 54 57 59 62 64 67 70 72 74 76 78 80 81 80 80 80 79 77 74 70 67 64 61 59 58 57 56 55 53 52 52
33 34 36 38 39 41 42 43 45 47 50 52 55 58 60 63 66 68 70 72 74 75 77 79 80 80 79 77 76 74 72 69 66 63 60 58 57 54 53 52 52 50 49 48
33 36 39 40 40 42 44 46 48 50 53 56 58 61 64 67 69 70 72 73 75 76 78 79 79 78 77 75 71 69 67 65 62 59 57 56 54 52 50 49 49 47 46 46
35 39 42 41 42 44 46 48 50 53 56 58 61 64 66 68 70 71 73 74 76 77 78 78 77 75 73 70 67 65 63 61 59 56 54 52 50 48 47 46 44 44 44 43
Wind_Direction
265 266 267 268 269 272 275 277 279 282 285 288 289 290 292 294 295 297 299 299 298 296 293 290 288 287 286 286 284 282 281 279 278 277 276 275 274 274 274 275 275 275 275 275
265 266 268 269 270 272 273 275 278 284 290 292 292 293 295 296 298 300 301 300 299 298 296 295 293 292 290 288 287 285 284 282 281 280 279 278 277 276 276 276 275 274 274 274
261 264 266 267 270 273 275 277 282 288 294 297 296 296 297 299 299 299 299 297 296 296 296 295 294 293 292 290 289 287 286 284 283 282 281 281 280 279 278 277 276 276 276 277
257 259 262 265 268 272 276 282 287 291 292 293 296 297 298 299 298 296 295 294 295 295 295 295 296 296 295 294 293 291 289 288 286 285 284 283 282 281 279 278 278 278 278 278
254 257 260 264 269 274 279 285 289 292 293 294 296 298 299 299 297 295 295 295 296 297 298 299 299 298 298 297 296 294 293 292 290 289 287 286 285 283 282 281 280 280 279 279
253 257 262 268 273 278 283 287 290 293 295 295 296 296 296 298 299 300 300 301 301 301 301 301 301 300 299 299 298 298 298 297 295 294 292 290 289 288 286 285 284 282 281 281
254 257 263 270 275 280 284 288 292 294 296 297 298 297 296 298 301 303 303 303 303 303 303 303 302 300 300 300 300 301 301 300 298 297 295 294 293 291 290 288 287 285 284 283
256 261 267 272 277 281 285 289 292 296 298 300 301 301 299 300 301 301 301 302 302 303 303 303 303 303 303 303 304 304 304 303 302 300 299 297 296 294 293 292 290 289 288 286
259 262 268 273 277 281 285 288 291 294 296 298 299 299 297 297 297 299 301 302 304 305 305 305 305 306 307 307 307 306 305 304 303 302 301 300 299 297 296 294 293 291 290 288
262 264 267 272 278 282 287 290 292 295 297 299 300 300 298 298 299 301 302 305 306 306 306 306 307 307 307 307 306 306 306 305 304 303 302 301 299 298 297 295 294 292 291 290
263 266 269 274 279 283 286 289 291 293 294 296 299 302 297 298 299 301 303 304 304 304 305 306 306 305 305 305 306 306 306 305 304 303 302 301 299 298 297 296 294 293 292 290
266 269 271 275 279 281 283 287 289 290 292 293 295 300 294 294 295 298 301 302 302 303 304 305 305 304 304 305 306 306 305 304 303 302 301 300 299 298 297 296 295 294 292 291
267 271 274 276 278 280 283 285 286 286 286 288 291 296 292 292 294 298 300 301 301 302 303 304 304 304 305 305 305 305 304 303 303 302 301 300 299 298 297 296 295 293 292 291
269 272 275 278 279 281 283 285 285 285 286 286 290 289 288 291 296 298 298 299 300 301 302 303 303 304 304 305 304 304 303 303 302 302 301 300 300 299 298 297 295 294 293 291
271 274 276 277 278 280 282 283 283 285 287 288 290 289 290 293 295 296 297 298 299 300 302 303 304 304 304 304 303 303 303 303 302 302 301 301 300 300 299 297 296 295 293 291
272 275 276 276 277 279 280 280 280 282 284 286 289 291 292 294 295 295 296 298 300 302 303 303 304 304 304 304 304 304 304 303 303 303 302 302 301 301 300 298 297 295 293 291
272 275 275 275 276 277 279 279 278 279 281 285 289 292 293 294 294 296 298 300 301 302 303 303 304 304 305 305 305 305 305 304 304 304 304 303 302 301 300 299 297 295 293 291
270 272 274 276 276 276 278 277 278 280 283 287 290 292 293 295 296 298 300 301 302 303 304 305 305 305 306 306 305 305 306 306 305 305 305 304 303 302 301 299 297 295 292 290
271 273 275 277 277 275 277 279 280 283 286 289 291 293 294 295 297 300 301 302 303 304 305 305 306 306 306 306 306 307 307 307 307 306 306 305 304 302 301 299 297 295 293 292
270 272 275 276 277 278 278 279 282 285 288 289 291 293 295 297 298 300 301 302 303 304 305 306 307 307 307 307 307 308 308 308 308 307 307 306 305 303 301 299 298 296 295 294
268 271 273 275 277 279 281 283 286 288 291 292 294 295 296 298 300 301 303 305 306 307 307 307 307 308 308 308 308 309 309 309 309 309 308 307 305 303 302 301 300 299 298 296
266 268 271 274 277 280 282 285 288 290 291 293 294 296 298 300 302 303 305 306 306 307 307 307 308 309 309 309 309 309 310 310 310 309 308 307 306 304 303 302 301 301 300 298
265 268 271 273 276 280 284 287 290 292 293 295 297 299 300 302 303 304 305 306 306 306 307 308 308 309 310 310 310 311 311 311 311 310 309 308 307 306 304 304 303 302 302 301
267 269 271 273 277 281 285 289 291 292 295 297 299 301 302 303 304 305 305 305 306 307 308 308 309 310 310 311 312 312 312 311 311 310 310 309 307 306 305 305 304 304 304 303
269 270 271 275 280 283 287 290 292 294 297 299 300 301 302 302 303 304 304 305 306 307 308 309 310 311 312 312 312 312 311 311 311 311 311 310 309 307 306 306 306 306 305 305
270 271 274 278 282 285 288 290 292 294 296 298 299 299 300 301 302 303 305 306 307 308 309 310 311 312 312 312 313 312 312 312 312 312 312 311 310 308 308 307 307 307 307 306
Height
5839 5839 5838 5838 5838 5838 5837 5837 5836 5834 5833 5832 5830 5829 5828 5826 5824 5822 5820 5819 5817 5815 5813 5811 5809 5807 5805 5803 5801 5799 5797 5795 5792 5791 5789 5788 5787 5786 5784 5782 5780 5778 5775 5772
5835 5834 5834 5833 5833 5833 5833 5832 5831 5830 5828 5827 5826 5824 5823 5822 5820 5817 5816 5813 5811 5809 5807 5805 5803 5801 5799 5796 5794 5792 5790 5788 5785 5783 5781 5779 5777 5776 5774 5772 5769 5766 5763 5760
5830 5831 5829 5829 5829 5829 5828 5828 5827 5826 5824 5822 5821 5820 5819 5817 5815 5813 5811 5808 5806 5804 5801 5799 5797 5794 5792 5790 5787 5785 5782 5780 5777 5775 5772 5770 5767 5766 5763 5760 5757 5755 5752 5749
5826 5826 5826 5825 5825 5825 5824 5823 5823 5822 5821 5819 5818 5815 5813 5812 5810 5808 5806 5803 5801 5798 5795 5792 5790 5787 5785 5782 5779 5777 5774 5771 5768 5766 5763 5760 5758 5755 5752 5749 5747 5743 5740 5737
5822 5822 5822 5822 5821 5821 5820 5819 5818 5818 5816 5815 5813 5810 5808 5806 5804 5803 5800 5797 5794 5791 5788 5786 5783 5780 5777 5774 5771 5768 5765 5762 5759 5757 5754 5750 5747 5744 5741 5738 5735 5731 5727 5724
5818 5818 5818 5817 5817 5816 5815 5814 5814 5813 5812 5811 5808 5806 5803 5800 5798 5795 5793 5790 5787 5784 5782 5779 5775 5772 5769 5765 5762 5759 5756 5753 5750 5746 5743 5740 5736 5733 5730 5726 5722 5718 5714 5710
5814 5814 5814 5813 5813 5812 5811 5810 5809 5807 5806 5805 5803 5800 5798 5793 5791 5788 5785 5783 5780 5777 5774 5771 5768 5764 5761 5757 5754 5750 5747 5744 5740 5736 5732 5729 5725 5721 5717 5713 5709 5704 5700 5695
5810 5810 5810 5809 5808 5807 5806 5805 5804 5802 5800 5799 5796 5793 5791 5787 5784 5781 5779 5776 5773 5770 5767 5764 5760 5757 5753 5749 5746 5742 5738 5734 5730 5726 5722 5718 5713 5709 5704 5700 5695 5690 5685 5680
5805 5806 5805 5804 5803 5802 5800 5799 5798 5796 5793 5792 5791 5788 5784 5780 5778 5775 5772 5769 5766 5763 5760 5757 5753 5749 5745 5742 5738 5734 5729 5725 5721 5716 5711 5706 5701 5696 5691 5686 5680 5675 5670 5664
5800 5801 5801 5799 5798 5796 5795 5793 5791 5789 5786 5784 5784 5781 5777 5773 5771 5769 5765 5762 5759 5756 5753 5749 5746 5742 5737 5733 5729 5724 5720 5715 5710 5705 5700 5694 5688 5683 5677 5671 5665 5659 5653 5647
5794 5795 5795 5794 5792 5790 5789 5787 5784 5782 5780 5777 5776 5777 5771 5767 5764 5762 5759 5756 5753 5749 5746 5742 5738 5733 5728 5724 5719 5714 5709 5704 5698 5693 5687 5681 5675 5668 5662 5655 5649 5642 5636 5629
5787 5788 5788 5787 5785 5783 5782 5780 5778 5776 5773 5770 5768 5771 5764 5761 5757 5755 5752 5749 5745 5742 5737 5733 5728 5724 5719 5713 5708 5703 5697 5691 5685 5679 5673 5666 5659 5652 5645 5638 5631 5624 5617 5610
5781 5781 5781 5780 5780 5777 5775 5773 5771 5768 5766 5764 5762 5765 5757 5754 5751 5748 5745 5741 5737 5733 5728 5723 5718 5713 5708 5702 5697 5691 5685 5678 5671 5664 5657 5650 5642 5635 5627 5620 5612 5604 5597 5590
5773 5773 5774 5773 5770 5768 5767 5766 5762 5760 5758 5756 5756 5755 5752 5747 5744 5740 5737 5732 5728 5723 5718 5713 5708 5702 5696 5690 5684 5677 5671 5664 5656 5648 5640 5632 5624 5616 5607 5599 5591 5583 5575 5568
5765 5765 5764 5764 5762 5760 5759 5758 5755 5752 5750 5748 5748 5746 5744 5740 5736 5732 5728 5723 5719 5713 5708 5702 5696 5690 5684 5677 5670 5663 5656 5647 5639 5631 5622 5613 5604 5595 5586 5577 5569 5560 5552 5545
5756 5756 5756 5755 5754 5751 5751 5750 5747 5745 5742 5740 5739 5737 5734 5731 5727 5723 5718 5713 5708 5702 5696 5690 5684 5677 5670 5663 5655 5647 5639 5630 5620 5611 5602 5592 5583 5573 5564 5555 5546 5538 5530 5522
5748 5747 5746 5746 5745 5743 5743 5741 5739 5737 5735 5733 5731 5729 5725 5721 5717 5712 5707 5702 5696 5690 5684 5677 5670 5662 5655 5647 5638 5630 5620 5611 5601 5590 5580 5570 5560 5551 5542 5532 5523 5514 5507 5499
5740 5739 5736 5736 5737 5736 5736 5733 5730 5728 5727 5725 5722 5719 5715 5711 5706 5701 5695 5689 5683 5677 5670 5662 5655 5647 5639 5630 5620 5611 5601 5590 5580 5569 5559 5548 5538 5529 5519 5510 5501 5492 5485 5477
5731 5729 5727 5726 5725 5726 5726 5723 5721 5719 5718 5716 5712 5708 5704 5699 5694 5690 5683 5676 5670 5663 5655 5647 5639 5630 5621 5611 5601 5592 5581 5570 5559 5548 5538 5527 5516 5506 5498 5489 5480 5471 5464 5458
5721 5720 5719 5717 5715 5716 5717 5714 5712 5710 5708 5706 5701 5697 5692 5687 5683 5679 5671 5664 5657 5649 5640 5631 5622 5612 5602 5592 5581 5571 5561 5549 5539 5528 5517 5506 5495 5485 5477 5469 5460 5452 5445 5439
5712 5710 5709 5707 5704 5706 5706 5704 5702 5701 5698 5693 5689 5684 5680 5674 5669 5663 5655 5647 5639 5631 5622 5613 5603 5593 5582 5572 5561 5551 5540 5529 5518 5507 5497 5487 5476 5466 5458 5450 5442 5434 5428 5422
5702 5701 5700 5697 5695 5697 5694 5693 5691 5689 5684 5680 5676 5671 5666 5660 5654 5647 5639 5631 5623 5614 5605 5596 5586 5576 5564 5552 5541 5531 5521 5510 5500 5489 5480 5470 5460 5450 5441 5433 5426 5419 5412 5406
5693 5692 5690 5689 5688 5685 5683 5681 5678 5675 5671 5667 5662 5657 5651 5645 5638 5631 5624 5615 5606 5597 5588 5578 5568 5559 5547 5533 5521 5510 5501 5491 5481 5472 5463 5453 5444 5435 5426 5418 5411 5404 5398 5391
5683 5681 5680 5678 5676 5674 5671 5669 5665 5661 5657 5652 5647 5642 5636 5629 5622 5615 5607 5598 5589 5580 5570 5560 5550 5540 5530 5518 5505 5492 5482 5473 5464 5456 5447 5438 5429 5421 5413 5405 5397 5390 5384 5378
5672 5670 5668 5667 5665 5663 5660 5656 5653 5648 5644 5638 5633 5627 5620 5614 5607 5599 5591 5582 5572 5563 5553 5542 5531 5521 5511 5500 5490 5478 5466 5457 5449 5441 5432 5424 5415 5407 5400 5393 5385 5378 5372 5364
5661 5658 5657 5657 5655 5652 5649 5645 5641 5637 5632 5626 5621 5614 5606 5599 5591 5583 5574 5565 5555 5545 5534 5524 5514 5503 5493 5483 5474 5463 5453 5443 5434 5427 5419 5410 5402 5395 5387 5381 5375 5368 5360 5354